Regional Weather Roundup
Issued by NWS

Home | Current Version | Previous Version | Graphics & Text | Print | Product List | Glossary On
Versions: 1 2 3 4 5 6 7 8 9 10 11 12 13 14 15 16 17 18 19 20 21 22 23 24 25 26 27 28 29 30 31 32 33 34 35 36 37 38 39 40 41 42 43 44 45 46 47 48 49 50
000
ASUS43 KLOT 282204
RWRIL

ILLINOIS REGIONAL WEATHER ROUNDUP
NATIONAL WEATHER SERVICE CHICAGO/ROMEOVILLE IL
500 PM CDT WED JUN 28 2017

NOTE: "FAIR" INDICATES FEW OR NO CLOUDS BELOW 12,000 FEET WITH NO
SIGNIFICANT WEATHER AND/OR OBSTRUCTIONS TO VISIBILITY.

* THESE STATIONS ARE NOT UNDER NWS QUALITY CONTROL. THEY ALSO MAY NOT
  REPORT WEATHER SUCH AS PRECIPITATION OR FOG.

ILZ001-002-007-009-015-016-024-282300-
NORTHWEST ILLINOIS

CITY           SKY/WX    TMP DP  RH WIND       PRES   REMARKS
MOLINE         CLOUDY    81  69  67 S10G20    29.74F HX  84
STERLING*      CLOUDY    76  69  79 VRB6      29.79S
SAVANNA*       MOSUNNY   79  69  72 S18G26    29.73F HX  81
$$

ILZ003-004-008-010-011-017-018-282300-
NORTH CENTRAL ILLINOIS

CITY           SKY/WX    TMP DP  RH WIND       PRES   REMARKS
ROCKFORD       CLOUDY    75  67  76 SW16G23   29.79F
FREEPORT*      CLOUDY    74  67  79 S16G25    29.78F
ROCHELLE*      CLOUDY    73  67  81 S18G28    29.80S
DE KALB*       LGT RAIN  72  67  84 S22G28    29.82F
PERU*          TSTM      74  64  71 S13       29.83F
$$

ILZ005-006-012>014-019>023-282300-
NORTHEAST ILLINOIS

CITY           SKY/WX    TMP DP  RH WIND       PRES   REMARKS
CHICAGO-OHARE  CLOUDY    80  59  48 S28G33    29.82F HX  81
CHICAGO-MIDWAY CLOUDY    81  59  47 S23G32    29.84R HX  81
AURORA         LGT RAIN  74  66  76 S21G26    29.84R
LANSING*       CLOUDY    81  58  44 S18G33    29.87F HX  81
JOLIET*        MOSUNNY   81  63  54 SW9G20    29.87R HX  82
WAUKEGAN       CLOUDY    72  66  81 CALM      29.80F
DUPAGE AIRPORT CLOUDY    75  65  70 S17G25    29.82F
WHEELING       LGT RAIN  76  65  68 S20G30    29.82F
MORRIS*        CLOUDY    79  61  53 SW17G25   29.87R HX  80
ROMEOVILLE*    LGT RAIN N/A N/A N/A SW21G26   29.86R
$$

LMZ740>746-282300-
SOUTHERN LAKE MICHIGAN

STATION/POSITION SKY/WX   TEMP    WIND        PRES    VSBY  WAVE
                          AIR SEA DIR/SP/G                  HT/PER
                          (F)     (DEG/KT/KT) (MB)    (MI)  (FT/S)
SOUTHERN BUOY              66 60  170/ 19/ 23 1010.4          5/ 6
WILMETTE HARBOR            74 62  200/ 14/ 21   N/A           3/ 4
HARRISON CRIB              79     190/ 26/ 29   N/A
BURNHAM HARBOR             80                   N/A
CALUMET HARBOR             81     170/ 18/ 30 1010.4R
BURNS HARBOR               79     190/ 25/ 34 1011.2F
MICHIGAN CITY              78     170/ 20/ 22   N/A
MICHIGAN CITY 6N           75 66  190/ 17/ 25   N/A           2/ 3
ST. JOSEPH                 73 67  180/ 17/ 23 1011.4F         3/ 3
$$

ILZ025>027-034>036-040-047-049-050-058-095>099-282300-
WEST-CENTRAL ILLINOIS

CITY           SKY/WX    TMP DP  RH WIND       PRES   REMARKS
QUINCY         SUNNY     87  66  49 S17G26    29.80F HX  89
GALESBURG*     CLOUDY    81  68  64 S17G24    29.80F HX  84
MACOMB*        CLOUDY    83  66  56 S12G23    29.82F HX  86
JACKSONVILLE*  SUNNY     85  62  44 S16G29    29.85F HX  85
PITTSFIELD*    SUNNY     86  65  49 S12G21    29.85F HX  88
$$

ILZ028>032-037-038-041>044-048-051>054-059>061-282300-
CENTRAL ILLINOIS

CITY           SKY/WX    TMP DP  RH WIND       PRES   REMARKS
PONTIAC        MOSUNNY   83  63  51 S22G32    29.87F HX  84
BLOOMINGTON    SUNNY     83  63  50 S24G33    29.88S HX  84
DECATUR        MOSUNNY   84  61  45 S20G26    29.90F HX  84
PEORIA         CLOUDY    84  61  45 S20G26    29.82F HX  84
LINCOLN*       MOSUNNY   85  65  52 S20       29.87F HX  86
SPRINGFIELD    SUNNY     86  64  47 S16G30    29.87S HX  87
TAYLORVILLE    MOSUNNY   84  64  49 S18       29.89S HX  85
$$

ILZ033-039-045-046-055>057-062-063-282300-
EAST-CENTRAL ILLINOIS

CITY           SKY/WX    TMP DP  RH WIND       PRES   REMARKS
CHAMPAIGN      CLOUDY    83  61  47 S21G26    29.91F HX  83
RANTOUL*       CLOUDY    84  63  49 S14G29    29.91F HX  85
MATTOON        MOSUNNY   82  65  56 S17G25    29.93F HX  84
PARIS*         MOSUNNY   80  62  55 S14G23    29.96F HX  81
$$

ILZ079-100>102-282300-
SOUTHWEST ILLINOIS

CITY           SKY/WX    TMP DP  RH WIND       PRES   REMARKS
ALTON          PTSUNNY   84  66  54 S14G23    29.89F HX  86
CAHOKIA*       SUNNY     89  61  38 S18G26    29.87F HX  89
SPARTA*        MOSUNNY   85  62  45 S13G18    29.94S HX  86
$$

ILZ064>066-069>071-074>076-080>082-084>086-088>090-092>094-282300-
SOUTH-CENTRAL ILLINOIS

CITY           SKY/WX    TMP DP  RH WIND       PRES   REMARKS
CARBONDALE     MOSUNNY   84  65  52 S18G28    29.95F HX  86
CAIRO*         MOSUNNY   85  64  49 S8G16     29.97F HX  87
EFFINGHAM*     MOSUNNY   84  64  51 SE12G21   29.95F HX  85
MARION         PTSUNNY   86  64  48 S12       29.97F HX  87
MT. VERNON     PTSUNNY   86  65  49 S18       29.95F HX  88
CENTRALIA*     MOSUNNY   86  65  48 S17G24    29.93F HX  88
SALEM*         MOSUNNY   85  62  45 S20G25    29.94F HX  86
METROPOLIS*    HVY RAIN  85  65  50 S9        29.99F HX  87
$$

ILZ067-068-072-073-078-083-087-091-282300-
SOUTHEAST ILLINOIS

CITY           SKY/WX    TMP DP  RH WIND       PRES   REMARKS
LAWRENCEVILLE  MOSUNNY   82  63  52 S17       29.98F HX  83
FLORA*         PTSUNNY  N/A N/A N/A S18       29.95F
FAIRFIELD*     MOSUNNY   83  63  50 S10       29.95F HX  84
HARRISBURG*    MOSUNNY   83  66  55 S10G16    29.97F HX  85
ROBINSON*      MOSUNNY   80  62  54 S12G21    29.97F HX  81
CARMI*         CLOUDY    83  65  55 S13       29.97F HX  84
$$

ABBREVIATIONS USED IN REMARKS
   TC - TEMPERATURE IN CELSIUS
  WCI - WIND CHILL INDEX
   HX - HEAT INDEX
  VSB - VISIBILITY
$$




USA.gov is the U.S. government's official web portal to all federal, state and local government web resources and services.